www.pogodaiklimat.ru

АРХИВ ПОГОДЫ в Seychelles

Время (UTC), дата Ветер
(напр.,м/с)
 
Видим.   Явления Облачность Т
(С)
Тd
(С)
f
(%)
Тe
(С)
Тes
(С)
Комфортность P
(гПа)
Po
(гПа)
Тmin
(С)
Tmax
(С)
R
(мм)
S
(см)
12 9.01 СВ 1 20 км 9 баллов +29.2 +24.9 78 +42 +43 опасность
перегрева
1009.8 1010.0
15 9.01 СЗ 2 20 км 10/0
[]
+27.4 +23.3 78 +37 +37 очень
душно
1010.4 1010.0
18 9.01 ЮЗ 2 20 км 9/0
[]
+26.9 +23.9 84 +37 +37 очень
душно
1011.9 1012.0
21 9.01 З 1 20 км 9 баллов +26.6 +24.0 86 +37 +37 очень
душно
1010.3 1010.0
03 10.01 Ю 1 25 км 8 баллов +26.3 +23.7 86 +36 +36 очень
душно
1011.3 1011.0
06 10.01 З 2 25 км 8/0
[]
+29.6 +23.2 69 +40 +49 очень
душно
1012.0 1012.0
09 10.01 З 3 25 км 8 баллов +30.3 +23.5 67 +41 +45 опасность
перегрева
1010.1 1010.0
12 10.01 З 2 30 км 3 балла +30.1 +23.3 67 +41 +46 опасность
перегрева
1009.2 1009.0
15 10.01 З 3 30 км 1 балл +28.0 +22.4 72 +37 +37 очень
душно
1010.6 1011.0
18 10.01 ЮЗ 2 30 км 8/0
[]
+28.2 +21.7 68 +36 +36 очень
душно
1012.0 1012.0
21 10.01 Ю 1 30 км 9 баллов +27.2 +22.8 77 +36 +36 очень
душно
1010.5 1011.0
00 11.01 Ю 1 30 км 4 балла +26.9 +23.3 81 +36 +36 очень
душно
1009.9 1010.0
03 11.01 ЮЗ 1 45 км 5 баллов +26.1 +23.8 87 +36 +36 очень
душно
1011.4 1011.0
06 11.01 С 1 45 км 8 баллов +29.0 +24.1 75 +40 +44 очень
душно
1012.4 1012.0
09 11.01 З 2 8000 м 9/0
[]
+26.6 +24.7 89 +38 +49 очень
душно
1011.2 1011.0
12 11.01 Ю 2 10 км 9/0
[]
+26.1 +24.5 91 +37 +41 очень
душно
1009.7 1010.0
15 11.01 ЮЗ 1 40 км 9/0
[]
+26.3 +24.9 92 +38 +38 очень
душно
1011.2 1011.0
18 11.01 З 1 30 км 9/0
[]
+26.4 +23.8 86 +36 +36 очень
душно
1012.5 1013.0
21 11.01 ЮЗ 1 30 км 6/0
[]
+25.5 +23.6 89 +35 +35 очень
душно
1011.1 1011.0
00 12.01 З 1 25 км 1/0
[]
+25.2 +23.4 90 +34 +34 очень
душно
1010.2 1010.0
03 12.01 ЮЗ 1 45 км 1 балл +26.1 +24.1 89 +36 +37 очень
душно
1011.5 1012.0
06 12.01 СВ 2 45 км 8/0
[]
+29.2 +24.3 75 +41 +50 опасность
перегрева
1012.5 1013.0
09 12.01 СВ 1 45 км 8/0
[]
+27.1 +25.1 89 +39 +54 опасность
солнечного
удара
1010.8 1011.0
12 12.01 С 3 40 км 8/0
[]
+29.6 +24.0 72 +41 +45 опасность
перегрева
1009.2 1009.0
18 12.01 ЮВ 1 30 км 9/0
[]
+26.2 +23.9 87 +36 +36 очень
душно
1012.2 1012.0
21 12.01 З 1 30 км 8 баллов +26.2 +24.0 88 +36 +36 очень
душно
1010.8 1011.0
00 13.01 З 1 20 км 9/0
[]
+24.8 +23.9 95 +34 +34 очень
душно
1009.4 1009.0
03 13.01 З 1 8000 м 9/0
[]
+25.3 +24.2 94 +35 +36 очень
душно
1010.8 1011.0
06 13.01 С 2 8000 м 9/0
[]
+28.9 +24.3 76 +40 +49 очень
душно
1010.9 1011.0
09 13.01 СЗ 4 40 км 8/0
[]
+28.3 +25.3 84 +41 +50 опасность
перегрева
1008.9 1009.0
12 13.01 СЗ 4 10 км 9/0
[]
+26.9 +23.6 82 +37 +39 очень
душно
1007.8 1008.0
15 13.01 З 1 10 км 9/0
[]
+25.1 +24.1 94 +35 +35 очень
душно
1008.7 1009.0
18 13.01 Ю 1 20 км 9/0
[]
+25.0 +24.3 96 +35 +35 очень
душно
1010.1 1010.0
21 13.01 З 2 20 км 9/0
[]
+25.1 +23.8 93 +34 +34 очень
душно
1008.6 1009.0
00 14.01 СЗ 2 20 км 9/0
[]
+25.6 +23.1 86 +34 +34 очень
душно
1007.3 1007.0
03 14.01 СЗ 2 8000 м 9/0
[]
+26.0 +23.4 86 +35 +36 очень
душно
1008.9 1009.0
06 14.01 СЗ 3 5000 м 10/0
[]
+25.4 +23.8 91 +35 +41 очень
душно
1010.5 1011.0
09 14.01 З 5 8000 м 10/0
[]
+25.8 +23.6 88 +35 +41 очень
душно
1009.1 1009.0
12 14.01 СЗ 3 20 км 10/0
[]
+26.4 +24.1 87 +37 +39 очень
душно
1008.1 1008.0
15 14.01 З 3 20 км 10/0
[]
+24.7 +23.5 93 +33 +33 очень
душно
1010.1 1010.0
18 14.01 З 2 20 км 9/0
[]
+26.3 +23.4 84 +36 +36 очень
душно
1011.4 1011.0
21 14.01 З 3 20 км 9/0
[]
+26.5 +22.8 80 +35 +35 очень
душно
1010.2 1010.0
00 15.01 З 2 20 км 9/0
[]
+26.2 +23.6 86 +36 +36 очень
душно
1009.4 1009.0
03 15.01 З 1 20 км 9 баллов +26.6 +23.7 84 +36 +36 очень
душно
1011.3 1011.0
06 15.01 СЗ 3 20 км 9/0
[]
+29.3 +23.0 69 +39 +46 очень
душно
1012.7 1013.0
09 15.01 С 6 20 км 9/8 420 м
[Cb cap Ac trans Ci ing]
+28.6 +22.6 70 +38 +39 очень
душно
1011.1 1011.0
12 15.01 С 6 20 км 9/4 420 м
[Cb cap Ac trans]
+28.2 +23.0 73 +38 +39 очень
душно
1009.9 1010.0
15 15.01 СЗ 2 20 км 9 баллов +27.5 +23.6 79 +37 +37 очень
душно
1011.7 1012.0
18 15.01 З 2 20 км 8/4 420 м
[Cb cap Ac trans Ci ing]
+26.7 +23.4 82 +36 +36 очень
душно
1013.1 1013.0 +29.6
21 15.01 З 1 20 км 9/0
[]
+26.2 +23.9 87 +36 +36 очень
душно
1011.9 1012.0
00 16.01 З 2 20 км 9/0
[]
+26.2 +24.2 89 +36 +36 очень
душно
1011.0 1011.0
03 16.01 З 2 30 км 9/0
[]
+26.2 +24.0 88 +36 +37 очень
душно
1012.8 1013.0
06 16.01 ЮЗ 4 н/о 9/0
[]
+24.0 +21.3 85 +30 +36 очень
душно
1014.3 1014.0
09 16.01 СВ 1 20 км 9/0
[]
+25.2 +23.1 88 +34 +46 очень
душно
1013.3 1013.0
12 16.01 СЗ 2 40 км 9/0
[]
+26.2 +23.4 85 +36 +40 очень
душно
1010.7 1011.0
15 16.01 ЮЗ 1 40 км 9/0
[]
+25.3 +23.7 91 +34 +34 очень
душно
1011.7 1012.0

 

Местоположение метеостанции Seychelles (Сейшелы): широта -4.67 долгота 55.52 высота над уровнем моря 3 м.

В архиве по умолчанию представлена погода в Seychelles за последнюю неделю. Архивные данные за месяц целиком и за предыдущие месяцы, начиная с января 2011 года, Вы можете получить, выбрав интересующий диапазон дат из раскрывающегося списка и нажав кнопку "Ввод!".

Внимание! Время в таблицах - всемирное. Для получения местного времени необходимо прибавить поправку, которая в Seychelles равна 4 ч.

Ветер - указаны скорость ветра в м/с - средняя за 10 мин, порывы в срок и между сроками (в фигурных скобках) и направление, откуда дует ветер: С - северный, СВ - северо-восточный, В - восточный, ЮВ - юго-восточный, Ю - южный, ЮЗ - юго-западный, З - западный, СЗ - северо-западный.
Видимость - горизонтальная дальность видимости в метрах или километрах. При видимости от 1 до 10 км при отсутствии осадков обычно наблюдается дымка, при ухудшении видимости до 1 км и менее - туман. В сухую погоду видимость может ухудшаться дымом, пылью или мглою.
Явления - указаны атмосферные явления, наблюдавшиеся в срок или в последний час перед сроком; фигурными скобками обозначены явления, наблюдавшиеся между сроками (за 1-3 часа до срока); квадратными скобками обозначены град или гололедные отложения с указанием их диаметра в мм.
Облачность - указаны через наклонную черту общая и нижняя облачность в баллах и высота нижней границы облаков в метрах; квадратными скобками обозначены формы облаков: Ci - перистые, Cs - перисто-слоистые, Cc - перисто-кучевые, Ac - высококучевые, As - высокослоистые, Sc - слоисто-кучевые, Ns - слоисто-дождевые, Cu - кучевые, Cb - кучево-дождевые. Подробнее классификацию облаков см. в Атласе облаков (PDF).
T - Температура воздуха - температура, измеренная на высоте 2 м над землей.
Td - Температура точки росы - температура, при понижении до которой содержащийся в воздухе водяной пар достигнет насыщения.
f - Относительная влажность воздуха - влажноcть воздуха, измеренная на высоте 2 м над землей.
Te - Эффективная температура - температура, которую ощущает одетый по сезону человек в тени. Характеристика душности погоды. При расчете учитывается влияние влажности воздуха и скорости ветра на теплоощущения человека.
Tes - Эффективная температура на солнце - температура, которую ощущает человек, с поправкой на солнечный нагрев. Характеристика знойности погоды. Зависит от высоты солнца над горизонтом, облачности и скорости ветра. Ночью, в пасмурную погоду, а также при ветре 12 м/с и более поправка равна нулю.
P - Атмосферное давление - приведенное к уровню моря атмосферное давление.
Po - Атмосферное давление - измеренное на уровне метеостанции атмосферное давление.
Tmin - Минимальная температура - минимум температуры воздуха на высоте 2 м над землей.
Tmax - Максимальная температура - максимум температуры воздуха на высоте 2 м над землей.
R - Количество осадков - Количество выпавших осадков, мм. При наведении курсора мыши на число - период времени, за который выпало указанное количество осадков.
S - Снежный покров - Высота снежного покрова, см. При наведении курсора мыши на число - состояние снежного покрова и степень покрытия местности в баллах.